Wind_Speed
11 8 6 6 6 6 6 6 6 7 8 8 9 10 10 10 10 8 8 7 6 6 6 5 5 5 5 5 5 6 6 6 6 5 5 5 5 4 4 4 3 3 3 3 4 4 4 4 4 4 4 4 5 5 5 6 7 7 7 7 7 8 9 9 10 10 10 10 10 10 9 8 8 7 7 7 7 7 7 6 7 6 7 7 6
12 9 6 6 6 7 7 6 5 7 7 6 7 8 9 10 11 10 10 10 9 9 9 7 7 7 7 7 7 7 8 7 7 7 7 6 6 5 4 4 3 3 3 4 5 5 5 5 5 5 4 3 4 5 6 6 6 7 7 8 7 8 8 9 10 10 11 11 11 11 10 8 6 4 6 7 7 8 7 5 6 7 8 7 7
12 9 5 6 7 8 8 7 6 7 7 6 7 8 8 9 9 10 10 10 10 10 10 9 9 9 8 8 7 8 8 9 8 8 8 7 7 7 6 6 5 4 4 5 5 5 6 6 7 6 5 3 4 5 6 7 7 7 7 8 9 9 9 9 10 10 11 12 12 11 10 7 3 4 6 6 6 7 7 5 5 7 8 9 8
11 8 6 6 9 10 9 9 8 8 8 7 8 8 7 7 7 8 7 7 7 7 7 8 8 7 7 7 6 6 7 8 8 9 8 7 7 7 8 7 7 6 5 5 5 5 6 6 6 7 6 5 4 4 4 5 6 8 8 8 8 9 10 11 11 11 11 12 13 10 10 9 7 6 5 5 6 6 5 4 5 7 8 9 9
11 9 8 7 10 12 10 10 9 9 9 8 8 8 7 7 7 7 6 6 5 5 6 6 6 6 6 6 6 5 4 4 5 5 5 6 5 6 7 6 6 6 6 6 6 6 6 6 6 6 6 4 5 5 5 6 5 6 7 8 8 8 10 12 13 13 12 12 13 9 10 11 8 6 6 6 7 5 4 5 7 7 8 10 10
11 10 8 5 9 12 11 10 10 10 9 9 9 8 8 8 7 6 6 7 7 7 6 6 5 5 6 5 4 3 2 1 1 2 3 4 4 3 3 3 4 4 5 5 6 6 6 6 6 6 5 4 5 6 6 7 7 7 7 9 9 9 9 10 12 13 14 13 13 8 9 9 6 5 7 9 7 6 6 6 8 9 10 11 11
12 10 9 6 8 12 11 11 11 10 10 9 9 9 8 9 7 7 7 6 6 6 7 6 5 6 5 3 2 1 1 1 1 1 2 2 3 2 2 2 3 3 2 3 5 5 5 5 5 5 4 4 4 5 5 6 7 7 7 9 10 10 10 10 11 12 13 14 13 8 7 7 7 6 6 8 9 9 8 8 9 11 12 12 12
11 8 8 7 8 10 10 10 11 10 9 7 7 6 6 7 7 7 7 5 4 5 6 6 5 6 4 2 1 1 1 1 1 1 2 2 3 3 3 3 3 3 2 3 4 4 3 3 3 3 3 4 5 5 5 6 7 7 7 8 9 10 11 12 12 12 12 13 13 9 8 8 7 7 5 6 8 10 11 11 11 12 13 13 13
11 8 6 7 8 9 9 10 10 8 7 7 7 6 6 7 7 6 6 5 5 5 5 4 4 4 1 1 0 0 1 1 2 2 2 2 2 2 3 3 3 3 3 3 4 4 4 4 4 4 5 6 7 7 7 7 7 8 8 8 8 9 10 12 13 13 13 12 11 8 9 9 8 8 7 8 9 11 13 13 12 12 12 13 14
10 9 9 7 9 9 9 10 9 8 8 8 8 8 8 8 8 7 7 6 6 5 4 4 3 2 2 1 1 0 1 1 1 2 2 2 2 2 3 3 4 4 4 4 4 5 5 6 6 7 8 9 9 10 10 10 10 11 11 11 10 10 11 12 14 14 14 11 9 9 9 9 10 10 9 9 9 12 14 14 14 13 12 13 14
10 9 9 8 10 10 10 10 9 9 9 9 9 9 9 9 9 8 7 7 6 6 5 4 3 3 2 1 1 1 1 1 1 1 2 2 3 3 4 4 5 5 5 5 5 6 7 8 9 10 10 11 11 12 12 13 13 13 14 14 13 13 13 13 15 15 15 13 12 11 10 10 10 10 10 10 10 13 15 16 15 13 13 13 13
10 9 9 8 10 11 11 11 11 10 10 10 9 9 9 9 9 8 8 7 7 6 6 5 4 3 2 1 0 1 1 2 1 2 2 2 3 4 4 5 5 5 6 6 6 6 7 9 10 11 12 12 13 13 13 14 14 15 15 15 15 15 15 15 15 15 15 14 14 13 12 12 11 11 12 13 13 15 17 18 17 15 14 13 13
12 9 8 9 11 12 12 12 12 11 10 10 8 8 8 8 8 8 7 7 6 6 5 4 4 3 2 1 1 2 2 2 2 2 2 3 4 4 5 5 5 6 6 6 6 7 7 8 10 11 12 13 13 13 14 14 15 15 16 16 16 16 16 16 16 15 15 13 12 12 13 13 13 13 13 14 14 15 17 18 18 17 16 15 14
13 10 9 10 12 13 14 13 12 11 10 9 8 7 7 7 6 6 6 6 6 5 5 4 4 3 3 3 3 4 4 4 4 4 4 4 5 5 6 6 6 7 7 7 8 8 8 9 10 11 12 12 13 13 14 15 15 15 16 16 16 17 17 17 17 16 16 14 12 12 12 14 15 15 14 15 16 17 18 19 19 19 18 17 16
13 12 10 11 13 13 12 12 10 10 9 8 7 6 6 6 5 5 5 5 5 5 4 4 4 4 4 4 5 5 5 6 6 6 6 6 6 7 7 7 7 8 8 9 9 10 11 11 12 12 12 13 13 13 14 14 15 16 16 16 17 17 17 17 17 17 17 17 15 13 12 13 14 14 14 15 17 18 19 20 20 19 19 19 19
14 13 10 10 13 12 11 9 8 7 7 6 6 6 6 5 5 5 4 4 4 5 5 5 5 5 5 5 5 5 6 6 7 7 7 7 7 7 7 7 7 8 8 9 9 10 11 12 12 13 13 14 14 15 15 15 15 15 16 16 16 17 16 17 17 17 17 17 17 16 15 15 15 15 15 15 17 19 20 20 21 21 20 21 21
14 14 12 11 12 13 11 10 8 8 7 7 7 7 7 7 7 6 6 6 6 7 7 7 7 7 7 7 7 7 7 7 6 7 6 6 6 6 6 6 6 6 7 7 8 9 9 10 11 12 13 13 14 14 15 15 15 15 15 15 16 16 16 16 17 17 17 17 17 17 17 16 16 16 17 17 17 19 21 22 23 23 22 22 22
15 14 14 13 12 13 13 12 10 10 9 9 8 8 8 7 7 7 7 8 8 8 9 10 10 10 10 10 10 10 9 8 8 7 7 6 6 6 6 6 6 7 7 7 8 8 8 9 10 10 11 12 12 13 13 14 15 15 15 15 15 15 15 15 15 14 14 14 14 14 14 14 14 15 16 16 15 17 20 21 22 23 23 23 24
16 14 14 14 14 13 13 13 12 11 11 11 9 8 8 7 7 7 7 7 8 9 10 10 11 10 10 10 10 10 9 8 8 7 8 7 8 8 8 9 10 10 10 10 10 10 11 11 11 11 11 11 11 10 11 12 13 13 14 15 15 14 13 11 11 11 11 12 12 12 13 14 15 17 18 17 15 17 19 19 20 22 24 25 25
16 15 15 16 15 15 14 14 13 11 11 11 9 8 8 7 7 7 7 7 7 8 9 10 10 9 9 10 10 9 7 7 8 8 9 9 10 10 10 12 12 13 13 12 13 14 14 13 13 13 12 12 13 12 11 13 13 13 13 13 13 13 11 10 9 10 12 13 13 14 14 14 16 18 20 18 16 18 21 22 21 22 24 26 27
18 17 16 17 16 16 15 15 14 13 12 11 9 8 7 7 7 6 6 6 6 7 8 8 8 8 8 9 9 7 3 6 7 7 8 9 11 11 11 13 13 14 14 13 15 16 15 15 16 16 15 15 16 15 14 14 14 13 13 13 12 12 11 11 11 12 12 12 13 14 14 14 16 19 18 16 16 17 21 24 24 24 25 25 26
20 20 18 18 18 18 16 16 16 15 14 11 9 8 8 7 7 6 6 6 6 6 6 6 7 7 8 7 6 6 4 5 6 6 8 9 11 11 12 14 14 15 15 16 17 18 17 17 18 18 16 16 16 15 14 14 14 13 14 13 11 11 12 13 12 12 11 11 12 13 14 15 17 19 18 17 18 19 21 24 26 27 28 27 26
22 23 21 20 20 19 18 17 17 16 15 12 10 9 8 8 7 7 6 6 6 6 6 5 6 6 6 6 5 5 4 4 6 7 9 10 11 12 13 13 14 15 16 16 17 18 18 18 18 18 17 17 17 16 16 16 15 15 15 13 12 13 14 14 13 13 12 11 12 12 13 15 17 19 19 19 19 20 21 23 24 27 29 30 29
24 25 24 21 21 21 20 18 18 17 15 13 11 10 9 8 8 8 7 7 6 6 5 5 5 5 5 6 5 5 5 4 6 8 9 9 11 11 11 12 13 15 16 17 17 17 17 17 17 18 18 18 19 18 18 18 17 17 17 15 15 16 16 16 15 14 14 13 13 13 13 15 17 19 19 19 20 21 22 23 24 25 27 29 29
24 24 25 25 23 23 22 20 19 19 16 14 13 12 11 10 9 8 7 7 6 6 5 5 5 5 5 6 5 6 4 4 7 8 8 9 10 10 11 13 14 15 17 18 18 19 18 18 18 18 18 18 18 18 18 19 19 19 18 17 17 18 18 18 17 16 16 16 15 15 15 16 17 19 19 20 21 22 23 24 25 25 26 27 28
24 25 27 27 26 24 24 24 22 20 18 16 15 14 13 12 10 9 9 7 7 6 5 5 5 5 5 6 5 6 3 2 6 6 7 8 9 10 11 13 15 16 18 19 19 20 20 19 18 18 18 18 17 17 17 17 18 19 19 18 18 19 19 19 18 18 18 17 17 17 17 17 19 20 20 21 21 22 23 24 25 26 25 26 27
27 28 28 27 27 26 26 26 24 22 20 18 16 17 15 12 12 11 9 8 8 7 6 6 5 6 6 7 6 5 3 2 4 5 6 7 9 10 11 13 14 16 17 18 19 20 20 19 17 17 17 18 18 17 16 17 17 18 19 20 20 20 21 21 21 20 20 20 19 19 18 18 19 20 22 22 23 23 23 24 24 25 26 26 27
29 28 28 27 29 28 27 27 25 24 22 20 19 18 16 15 14 13 12 10 9 9 9 7 6 7 6 7 7 6 4 2 3 4 5 7 9 10 11 12 13 15 17 17 18 19 19 18 17 16 17 18 18 17 17 17 17 17 19 20 21 22 22 22 22 22 22 22 22 21 21 20 20 21 23 24 24 25 24 24 24 25 26 26 26
29 29 28 28 30 30 28 28 26 26 24 22 20 18 18 18 16 15 15 13 11 12 11 9 8 8 7 7 7 6 4 2 2 3 5 6 8 9 10 12 13 14 16 17 18 19 19 18 17 16 17 18 18 17 17 18 17 17 18 19 20 22 23 23 23 23 23 24 24 23 23 23 23 23 24 25 25 25 25 25 25 25 26 26 27
31 30 30 29 30 30 29 28 28 26 25 24 20 18 20 19 17 17 16 15 14 14 12 10 9 9 9 8 7 6 5 3 2 2 4 5 6 8 9 10 12 13 14 16 17 17 18 18 17 17 17 18 17 17 17 17 18 18 18 19 20 21 22 22 23 24 24 24 25 25 25 25 25 25 25 25 25 25 26 26 26 26 26 26 27
31 31 31 30 30 31 30 28 28 27 25 24 21 20 20 19 18 18 17 17 16 14 13 12 11 10 9 8 7 6 5 4 3 2 3 4 5 7 7 9 10 10 13 15 16 17 18 18 16 15 16 16 17 17 16 16 18 18 18 19 20 20 22 22 23 24 24 25 25 25 26 26 25 25 25 25 25 25 25 25 26 26 26 26 27
31 33 32 31 31 32 31 29 28 27 26 25 23 22 20 20 20 19 18 18 17 15 14 14 14 11 9 9 8 7 6 5 4 2 2 3 4 5 6 8 8 9 12 14 15 17 17 16 13 13 14 14 15 16 15 16 18 19 19 20 20 21 23 22 23 25 26 26 25 26 26 26 26 25 24 23 23 23 24 24 25 25 25 26 26
31 33 32 32 32 32 31 30 29 28 27 26 25 23 21 21 21 20 20 19 17 16 16 15 14 12 10 10 8 8 7 5 3 3 3 2 4 4 6 7 7 9 12 14 15 16 16 15 13 13 14 14 15 15 15 16 18 19 20 21 22 23 24 25 26 27 27 27 26 26 26 26 26 25 24 23 22 22 22 22 23 23 24 25 26
31 32 32 33 33 32 32 31 30 30 28 26 26 24 23 22 21 20 20 19 18 17 16 15 14 13 12 11 9 8 7 5 3 2 2 2 3 4 6 6 7 10 12 13 14 15 15 14 13 14 15 14 14 15 16 17 18 19 21 21 23 25 26 26 28 28 28 27 27 27 27 27 25 24 24 23 21 21 21 21 21 22 23 24 25
32 33 34 33 32 32 32 32 31 31 28 27 27 26 24 23 22 21 20 19 19 17 17 16 14 13 12 12 10 9 7 5 3 1 1 2 2 3 4 5 7 10 12 13 14 14 14 14 13 14 15 14 15 16 17 17 19 20 22 23 25 26 27 28 29 29 28 28 28 27 28 27 26 24 23 22 21 20 20 20 21 22 23 24 25
34 34 34 33 32 32 33 33 32 31 29 27 27 26 24 23 22 21 20 20 19 18 17 16 14 13 12 12 11 9 7 5 3 2 1 1 1 2 3 5 8 10 12 13 14 14 14 14 13 12 13 16 17 18 17 17 19 22 24 25 27 27 28 29 29 29 28 28 28 28 27 26 26 24 23 21 20 20 20 21 22 22 23 24 25
35 34 35 34 33 33 33 33 32 32 30 27 27 25 23 23 22 21 20 21 19 18 18 17 16 14 13 12 11 9 7 5 3 2 1 0 0 1 3 6 8 11 12 13 13 13 13 13 13 11 12 16 18 19 19 18 20 22 24 27 28 28 29 30 30 30 29 28 28 26 25 24 24 23 21 20 20 20 21 21 22 23 23 24 25
34 34 35 35 34 34 33 32 31 31 30 28 27 25 24 23 22 21 22 22 20 19 18 18 17 16 14 13 11 9 7 5 4 3 2 1 1 3 5 7 10 11 12 13 12 12 12 11 12 12 13 16 18 19 19 20 22 23 27 28 27 28 30 31 31 30 29 28 27 25 23 20 19 19 19 20 20 21 21 22 23 23 24 25 25
32 32 34 34 33 33 33 31 31 31 30 29 27 26 24 24 23 21 22 22 20 19 19 18 17 16 16 14 11 9 7 6 4 3 2 2 2 4 6 8 10 11 12 12 11 11 10 8 11 14 15 15 15 17 19 20 21 25 28 27 26 29 30 29 30 29 27 26 25 23 21 19 18 18 19 20 20 20 21 22 23 25 26 26 26
31 31 33 33 32 32 32 31 31 32 31 29 28 27 26 25 24 23 23 23 22 20 19 18 17 16 17 15 11 9 8 6 5 4 3 2 2 4 5 7 9 10 11 11 11 10 9 10 13 14 15 15 15 15 16 18 23 27 27 25 27 28 26 27 28 26 24 24 22 22 21 20 19 18 19 20 20 19 20 23 26 27 27 27 27
29 30 32 32 32 33 33 33 32 33 33 32 31 31 30 28 27 27 26 25 24 22 20 18 18 17 17 15 12 10 9 7 6 5 4 3 3 3 5 6 8 9 10 10 10 10 10 12 12 12 12 14 17 16 15 18 21 21 21 24 29 25 22 27 26 22 21 20 18 19 20 20 20 20 23 23 21 20 22 26 26 25 25 27 29
29 30 33 33 32 34 34 34 34 34 35 35 34 33 33 32 30 30 28 26 25 24 23 20 19 19 18 15 12 12 10 8 7 6 4 3 3 3 4 5 7 8 9 10 10 11 11 10 10 11 11 12 16 17 15 15 14 15 17 18 21 21 21 23 15 13 17 20 23 24 24 25 26 26 26 25 23 24 26 26 24 25 27 29 29
30 31 33 33 33 34 35 35 35 36 35 35 35 33 32 31 29 28 27 26 23 22 22 21 21 20 18 15 13 12 11 10 9 7 5 4 4 3 4 5 7 8 9 10 10 10 10 9 8 10 12 13 15 15 13 11 13 17 15 9 8 11 15 12 8 15 25 27 27 24 21 22 23 22 23 25 25 26 28 28 28 29 29 28 27
29 31 33 34 34 35 37 37 37 37 35 35 35 32 30 27 25 24 25 25 23 21 21 21 22 21 18 16 14 13 12 11 10 7 6 5 4 4 5 6 7 8 9 9 10 10 10 8 7 8 11 14 16 15 12 11 13 13 9 5 6 6 6 6 12 24 26 20 18 17 18 21 22 23 24 26 27 28 29 29 28 28 28 28 28
31 33 35 36 35 36 38 38 38 37 35 35 34 32 30 28 26 25 25 23 23 23 24 23 23 21 19 18 16 15 14 12 10 8 7 6 5 5 5 6 7 8 9 9 10 10 9 8 8 9 12 13 15 16 15 13 11 10 8 6 5 4 4 8 15 16 13 15 20 21 22 22 22 23 24 26 27 28 29 29 29 28 28 30 30
32 34 36 36 35 36 37 37 37 36 35 34 34 34 34 34 33 32 30 27 25 26 29 29 27 24 20 18 17 16 16 13 11 9 8 7 6 6 6 7 7 8 9 9 10 10 10 9 9 10 12 12 13 15 17 15 12 11 12 12 11 10 10 11 9 7 13 19 18 17 19 20 21 23 24 26 26 27 28 29 30 29 30 32 32
32 34 34 35 35 35 36 37 36 36 35 35 36 37 37 37 37 36 35 33 30 30 31 30 27 24 21 19 19 18 16 14 12 10 9 8 7 6 7 7 8 9 9 10 11 11 10 10 9 10 12 13 13 14 16 16 13 12 12 14 17 19 19 16 8 7 13 15 12 14 18 19 21 25 27 26 25 28 31 31 31 33 34 33 32
32 33 34 35 35 35 36 36 36 36 36 37 38 38 38 38 37 35 34 33 31 30 29 26 24 23 22 22 21 19 17 14 12 12 10 9 7 7 8 8 9 9 10 11 12 11 10 10 10 11 13 13 13 14 15 14 13 14 14 15 17 18 20 19 17 13 9 10 16 18 18 17 20 25 27 27 29 31 32 32 32 33 34 34 35
32 34 36 36 35 35 36 36 36 36 37 38 39 39 39 38 38 35 32 31 29 27 27 26 25 25 25 24 22 19 17 15 13 12 11 10 8 8 9 9 9 10 11 12 11 10 10 11 12 13 13 13 12 12 14 15 14 15 15 16 16 17 18 19 21 19 12 10 13 14 16 18 19 23 26 28 33 34 34 34 35 36 37 40 41
33 35 35 35 35 35 36 37 37 38 38 40 41 40 39 38 38 37 33 31 28 28 29 29 28 28 27 25 22 20 18 16 15 14 12 11 10 10 10 10 10 10 11 11 10 10 11 12 12 12 12 12 12 13 14 15 14 15 15 15 16 16 15 13 14 16 13 10 11 12 16 18 16 21 26 29 33 34 36 37 37 38 39 39 39
31 33 34 35 36 36 38 38 38 38 39 41 42 41 40 40 40 39 37 34 33 33 33 32 30 29 28 26 24 21 19 17 16 15 13 12 11 10 10 10 10 10 11 11 11 11 11 11 11 11 12 12 13 13 14 15 14 15 15 15 17 16 14 13 14 16 12 8 10 11 16 22 22 24 27 29 33 33 34 37 36 36 37 36 37
Wind_Direction
114 114 125 123 119 100 81 77 71 68 64 66 69 70 75 78 82 87 91 93 91 89 88 85 81 75 64 56 45 42 40 40 37 38 40 28 21 11 4 0 4 17 25 28 10 4 15 22 23 18 20 6 348 356 7 13 14 16 17 15 8 1 356 356 358 355 352 347 340 333 321 309 304 306 315 308 292 292 297 303 307 308 311 322 327
123 127 126 106 107 96 87 87 86 80 74 70 70 68 70 76 79 82 85 88 88 89 89 90 88 83 77 70 63 60 56 53 50 50 51 47 42 34 26 13 357 347 344 351 350 354 357 359 4 2 10 11 348 345 353 357 359 360 3 5 5 360 355 350 348 349 350 349 348 343 337 324 309 317 331 321 296 288 289 298 308 307 311 313 306
120 128 107 88 105 98 94 91 89 91 89 89 86 80 79 82 85 83 82 83 84 85 85 84 82 79 75 71 65 64 65 64 61 60 58 56 53 48 48 42 31 22 11 0 2 4 360 1 2 360 359 3 2 360 355 352 349 345 348 352 353 352 350 347 343 342 345 348 351 354 359 356 355 4 351 333 305 285 285 296 306 304 306 305 302
115 117 89 88 110 104 97 92 90 93 92 94 95 94 93 96 96 89 89 90 86 88 88 83 79 78 74 73 72 73 75 75 70 67 61 57 58 55 56 54 48 45 38 24 22 17 7 8 6 7 6 3 358 352 345 345 346 340 339 342 346 346 342 343 342 341 340 344 351 1 20 26 28 10 342 323 303 280 281 298 302 301 303 301 299
113 114 101 93 107 108 102 97 96 96 93 93 97 100 100 101 97 94 97 96 92 96 101 92 88 90 86 87 92 95 91 81 70 64 58 55 55 56 56 56 55 54 50 35 25 20 14 12 13 17 10 352 329 317 319 324 332 334 333 332 336 337 335 337 338 340 339 342 346 359 32 28 17 355 330 319 303 285 284 292 298 303 307 305 302
114 118 119 112 113 112 107 105 102 100 100 98 97 98 100 99 102 108 107 102 100 100 97 93 99 102 101 112 119 117 109 76 29 35 50 53 42 42 44 35 35 42 52 43 29 24 20 16 15 21 7 341 322 314 318 318 316 317 318 319 323 326 326 326 328 332 333 339 343 0 35 17 344 324 323 325 313 297 296 299 306 311 315 312 308
119 120 124 127 123 118 114 109 106 101 102 103 97 99 101 98 103 102 102 110 111 103 91 91 104 100 100 130 147 135 124 65 29 13 27 23 1 358 355 341 342 349 13 23 21 20 21 23 20 22 2 335 322 316 322 322 315 310 308 310 313 315 315 314 316 320 324 332 336 354 13 347 323 317 315 323 320 307 297 298 306 311 315 314 310
118 124 140 144 129 126 124 111 108 107 109 116 113 118 120 115 116 103 113 140 133 114 95 94 96 87 93 133 147 99 59 53 45 12 359 345 339 341 335 321 316 318 322 342 360 356 350 1 9 7 344 332 328 322 324 323 317 313 313 314 313 311 309 308 308 310 315 324 333 346 339 325 323 322 308 308 317 308 297 294 300 304 306 307 306
119 124 147 161 142 137 133 115 116 125 129 136 138 140 141 141 140 129 142 157 147 136 115 112 104 96 120 176 160 97 66 59 55 40 29 6 352 344 341 332 319 315 313 333 352 346 330 323 323 319 312 315 321 322 321 319 315 312 310 311 311 306 303 302 302 306 310 320 333 335 321 317 310 307 300 293 297 293 293 299 305 307 303 299 299
131 138 145 154 147 150 147 131 135 148 146 140 139 140 142 142 144 145 152 155 152 155 150 149 147 151 183 185 168 176 130 80 60 53 41 27 11 358 351 345 338 332 326 327 337 341 334 323 317 313 311 310 313 316 315 314 311 308 306 302 300 297 295 296 300 305 308 313 314 304 304 306 301 302 300 296 291 282 288 299 303 307 307 303 300
138 158 170 161 148 152 157 154 151 151 147 141 139 138 138 139 139 141 144 150 153 155 158 160 163 169 170 174 167 126 111 88 61 45 26 16 6 359 356 351 350 346 344 340 339 338 333 328 323 321 320 320 320 319 316 314 311 307 306 304 302 300 298 298 300 302 303 304 298 295 296 293 294 298 294 296 297 287 290 295 297 302 304 305 305
146 170 189 175 160 157 159 160 155 151 146 141 138 137 137 137 137 136 137 141 147 150 154 156 156 158 156 161 118 62 63 69 66 56 36 22 12 9 4 359 358 352 351 349 347 346 341 335 328 325 323 324 322 320 318 315 313 310 308 307 306 304 302 301 301 299 297 298 299 297 293 290 292 291 286 288 292 291 293 296 300 304 304 304 305
157 176 193 181 173 166 161 160 157 155 150 147 145 144 142 141 140 137 138 137 138 140 142 145 140 131 121 99 54 45 45 56 56 53 45 34 28 23 18 13 8 0 357 352 350 347 344 339 332 329 326 326 324 322 320 316 314 310 308 306 305 303 302 301 299 297 294 292 295 296 293 291 290 288 287 285 284 285 289 295 299 304 307 307 306
162 174 189 183 178 174 167 163 160 157 154 155 153 153 151 149 150 147 145 139 135 131 129 122 112 105 93 81 69 65 60 60 58 57 51 44 39 35 31 27 22 16 10 3 359 354 348 344 340 336 332 331 328 326 323 320 318 313 310 306 304 302 300 298 296 296 293 288 283 283 287 288 288 290 287 282 280 281 285 289 293 299 304 307 308
169 173 187 186 180 179 174 170 166 162 161 161 164 167 168 166 166 163 158 148 137 126 119 108 98 90 83 78 72 70 65 60 60 60 57 55 52 46 42 36 30 23 17 9 4 359 354 350 346 343 341 339 335 333 329 326 323 320 316 312 308 304 301 297 294 292 291 290 286 281 279 281 287 288 284 283 283 284 287 289 290 294 298 302 304
177 172 179 183 180 183 181 179 173 172 175 177 186 186 187 188 186 183 173 159 144 131 120 111 104 96 90 84 78 74 71 67 65 65 63 61 56 52 48 40 35 26 19 12 5 0 356 352 350 348 346 343 342 339 337 336 333 329 324 320 316 310 306 300 294 290 288 289 289 286 280 276 276 275 277 283 286 287 289 289 289 290 292 295 296
179 171 175 181 185 190 189 185 182 184 189 192 198 197 195 192 187 183 173 163 148 140 131 127 124 118 113 107 103 98 92 90 86 84 80 77 71 62 57 49 42 34 25 17 10 5 358 354 352 349 348 346 345 342 342 342 341 339 335 331 326 320 314 307 300 294 289 289 290 291 290 286 283 280 278 277 279 283 286 288 290 291 291 290 290
178 177 184 185 186 196 195 191 193 192 195 199 197 195 190 182 176 169 160 154 143 136 131 127 122 117 115 114 115 111 107 104 100 99 91 87 84 72 66 59 49 41 32 27 21 14 9 4 358 354 352 349 348 346 344 344 342 342 342 340 337 333 328 322 315 310 304 300 299 295 295 296 293 291 286 280 275 276 282 288 291 291 292 292 291
180 183 190 188 187 197 196 193 196 194 199 200 195 190 179 171 164 156 149 140 130 122 116 111 105 103 103 106 105 96 91 91 89 88 81 71 66 57 50 48 42 38 34 32 28 24 22 17 12 7 4 2 359 354 352 354 351 349 348 345 345 347 348 344 338 330 317 303 291 282 284 287 287 288 287 285 281 277 280 285 288 288 290 293 293
183 183 191 192 191 198 196 193 195 192 200 199 190 186 176 169 163 156 147 132 121 111 105 102 98 95 92 85 79 69 51 57 62 59 61 54 49 43 40 42 37 36 34 32 30 27 25 21 19 16 15 14 12 11 9 5 2 1 357 353 354 359 0 349 333 316 301 288 280 276 278 280 284 287 283 282 286 282 278 280 283 284 287 290 289
190 188 193 194 193 199 198 196 194 190 200 203 191 186 180 173 167 158 145 129 120 111 107 106 102 101 94 80 80 86 55 45 52 50 54 50 48 42 40 39 33 32 30 29 27 23 21 19 18 17 16 12 10 13 9 2 1 3 0 360 0 355 346 330 317 309 304 299 295 291 288 282 282 285 283 285 290 285 278 277 280 281 284 286 286
195 194 195 197 196 197 197 197 196 194 200 205 198 190 188 180 171 163 149 136 131 124 118 115 110 110 105 98 104 122 111 63 62 62 58 52 47 39 36 32 24 25 22 21 21 16 16 16 13 13 14 7 3 6 2 358 359 359 357 359 355 342 334 330 326 321 316 310 303 296 290 283 278 277 281 288 288 285 280 277 277 278 280 281 282
198 198 196 199 201 198 195 198 199 199 200 203 201 194 192 186 177 168 159 151 147 141 132 128 122 123 120 114 116 122 110 73 66 64 57 51 44 37 31 26 20 20 18 17 16 13 12 13 10 7 7 3 1 1 358 356 357 355 354 353 344 336 336 337 335 327 319 309 299 290 285 283 280 279 285 290 288 285 284 281 279 278 278 278 279
199 200 198 199 202 200 196 200 204 202 202 201 198 194 192 189 183 174 169 163 156 152 146 144 134 134 134 123 117 113 104 71 62 61 56 50 44 36 28 23 20 19 18 16 15 13 11 11 9 5 3 0 359 357 353 353 354 351 348 345 340 338 338 336 333 328 322 317 309 300 292 287 283 284 290 292 289 287 286 284 283 281 279 279 278
199 198 199 199 199 202 198 199 205 202 201 199 194 193 191 190 188 178 175 171 164 162 155 152 146 143 139 127 109 95 94 57 58 61 56 50 42 34 25 21 17 16 13 11 12 10 8 9 7 4 2 360 357 353 352 351 348 343 342 341 338 335 332 331 330 327 323 318 315 309 301 295 292 292 294 293 291 289 287 286 284 283 280 279 278
198 195 197 199 198 201 199 198 203 199 198 197 192 194 193 189 191 183 179 178 172 168 165 168 157 147 139 128 109 95 106 52 52 59 52 45 38 30 23 18 12 10 9 6 7 6 6 6 4 2 359 358 356 354 353 348 342 339 339 338 334 330 327 327 326 323 321 318 316 316 311 307 306 303 301 298 295 293 290 289 287 285 282 279 278
195 195 195 197 195 197 198 200 201 197 195 193 190 196 192 186 193 186 178 185 178 167 177 188 170 157 149 136 130 127 138 82 53 55 45 36 33 28 20 15 9 7 8 5 4 4 4 3 2 359 355 354 353 353 352 346 343 341 338 335 332 329 327 327 325 322 320 318 317 317 316 314 312 309 306 303 300 297 294 292 290 288 285 282 279
191 192 193 194 194 195 197 199 200 197 193 188 192 196 184 182 194 183 178 186 176 175 188 192 180 172 162 148 145 146 148 114 65 53 42 32 30 25 17 13 8 6 6 4 1 0 0 360 358 355 352 352 351 351 349 345 346 341 334 334 333 330 328 327 326 323 321 320 318 316 315 313 310 309 307 306 303 300 297 294 291 289 286 284 281
192 191 191 193 193 194 196 196 197 197 193 189 193 192 180 188 193 181 183 182 175 186 193 188 186 178 166 163 159 153 159 137 84 59 44 35 31 23 15 12 7 4 1 1 360 358 356 355 355 353 350 348 347 349 347 344 344 339 335 333 329 326 326 326 324 322 320 319 318 317 316 313 310 308 306 305 303 300 298 296 294 291 288 286 283
194 191 190 192 191 192 194 195 195 196 194 190 189 185 186 193 187 184 188 179 181 192 185 178 191 188 171 171 170 162 166 154 118 83 53 37 32 21 13 10 5 360 359 360 359 355 353 354 356 351 346 343 344 345 341 339 339 338 334 327 322 322 322 322 320 318 318 317 316 316 316 314 312 310 307 305 302 299 298 297 296 295 292 289 286
192 189 190 191 190 190 191 192 194 195 194 190 184 185 191 191 183 188 188 181 188 188 177 181 191 193 179 175 175 170 171 165 152 110 66 48 34 21 14 8 2 359 359 358 356 353 352 354 354 344 339 338 338 339 338 334 332 330 325 319 316 316 316 317 315 314 314 313 312 311 311 311 310 309 307 305 301 299 298 298 298 297 295 293 290
191 190 190 190 188 189 189 189 190 192 193 188 183 186 190 188 186 188 185 186 189 180 178 187 193 195 186 183 180 176 180 173 159 123 88 64 40 23 20 9 358 357 358 355 354 353 352 351 348 338 335 334 331 336 337 328 325 324 318 315 314 312 314 315 312 310 309 307 306 305 305 305 304 305 304 302 300 299 299 299 299 298 297 296 295
193 191 188 189 188 188 188 186 187 189 190 185 183 186 188 187 187 187 188 188 182 179 184 190 197 196 190 192 184 182 187 179 164 127 103 70 44 26 20 9 352 353 356 354 353 352 349 347 344 337 336 335 333 334 328 321 322 321 316 315 315 313 314 313 310 309 308 305 304 302 302 301 301 302 302 301 299 299 299 299 300 299 299 299 298
192 188 187 189 188 187 186 184 186 187 186 184 184 184 185 186 184 187 191 187 179 181 184 190 200 196 192 195 188 188 189 179 178 136 110 66 43 23 11 358 343 349 354 353 352 350 347 345 341 334 335 338 334 326 319 318 320 318 315 314 311 310 311 310 310 310 308 306 305 303 301 301 301 300 300 300 297 296 295 296 299 299 299 299 299
190 186 188 188 187 186 185 184 186 186 183 183 184 183 186 185 182 188 190 182 179 182 185 190 198 198 195 193 190 194 191 180 182 160 116 60 34 15 1 339 336 348 352 351 349 348 346 342 337 332 332 332 326 319 317 319 319 315 312 311 309 310 312 312 312 311 309 307 305 303 302 302 302 300 298 297 294 294 297 302 305 303 299 299 299
190 187 186 185 185 185 184 184 184 184 180 182 184 183 186 183 182 190 186 179 181 184 188 189 191 197 199 192 190 195 194 188 181 175 157 62 25 5 347 328 338 348 349 349 349 347 343 336 333 332 325 319 317 316 318 318 313 310 310 311 312 313 314 314 313 310 308 305 303 304 304 304 303 301 299 296 297 300 303 304 304 302 300 300 300
189 186 184 183 184 184 184 183 183 182 179 180 182 181 183 181 183 189 183 179 181 184 188 188 186 192 200 199 191 193 197 192 185 179 176 174 332 334 332 331 342 348 347 348 347 345 341 333 331 332 316 309 310 312 316 317 311 308 310 312 315 316 315 314 312 309 306 302 302 305 306 306 303 301 299 298 300 302 303 301 300 301 300 302 302
188 187 185 184 184 183 183 183 183 181 178 178 178 178 179 177 181 187 184 180 181 186 188 187 187 187 197 204 192 192 198 191 192 190 189 232 299 326 333 340 343 346 345 344 344 342 340 334 324 316 306 303 305 309 313 315 311 308 309 312 316 317 315 313 310 306 303 300 302 304 305 303 299 298 301 301 302 301 302 302 302 302 302 302 301
186 185 183 182 182 181 182 182 181 179 178 178 176 175 175 176 180 183 184 181 180 187 189 186 188 187 195 202 194 196 202 194 198 202 212 261 314 330 336 341 341 343 341 338 340 337 333 321 301 299 304 306 306 310 313 313 309 306 307 312 317 317 316 314 308 302 300 300 301 299 296 294 293 294 297 299 300 299 299 301 303 302 301 300 300
182 181 180 181 180 178 178 180 180 179 178 177 175 174 173 175 179 181 182 183 181 184 186 185 185 189 198 200 193 198 205 201 206 217 233 264 309 326 335 338 338 338 335 334 334 327 314 299 293 299 311 316 317 317 315 312 305 303 307 313 316 318 319 315 307 300 299 300 298 293 288 287 289 291 292 296 295 293 295 298 299 298 297 299 301
177 178 178 180 180 179 179 179 179 180 180 179 178 177 176 176 180 182 183 184 185 183 182 183 184 192 202 198 190 197 207 211 215 225 240 264 299 322 334 335 334 332 331 328 320 309 300 298 303 309 315 316 316 317 316 309 302 305 314 316 315 317 320 316 306 298 300 302 298 290 286 287 289 291 294 295 289 286 293 298 297 294 296 300 302
175 177 178 179 181 182 182 181 180 182 185 184 183 183 184 184 185 187 185 184 188 189 185 183 187 195 201 197 193 199 207 213 219 226 238 259 283 308 325 327 326 326 322 316 307 304 302 305 307 308 309 304 301 310 320 314 303 311 319 315 315 319 322 321 314 304 308 307 301 293 288 287 287 289 291 290 285 285 294 299 294 290 294 298 299
177 178 179 181 182 183 184 184 183 185 187 188 187 187 188 190 190 188 186 184 187 193 191 188 191 197 199 197 198 204 209 214 219 225 233 251 270 290 312 317 318 318 313 307 302 297 295 295 295 293 297 294 292 303 318 312 304 314 318 307 314 323 324 334 339 313 306 301 299 296 291 287 287 289 287 285 285 286 292 294 289 289 293 295 296
179 180 181 183 183 185 186 186 187 187 188 189 189 189 186 187 189 186 185 184 182 184 186 187 192 197 198 198 201 207 211 215 220 225 234 249 266 284 304 309 311 310 302 295 287 282 282 286 286 277 280 284 288 295 303 303 303 310 316 304 306 306 303 339 329 309 303 302 302 300 295 291 289 291 288 284 285 287 291 292 289 290 292 291 291
182 184 184 186 185 187 189 189 189 188 188 188 187 186 180 176 175 171 172 173 172 174 176 181 189 194 197 199 202 207 210 215 220 227 238 250 266 282 297 300 301 297 288 280 272 272 273 272 270 266 270 274 280 289 295 305 307 294 286 287 300 299 291 330 325 307 300 303 298 296 295 292 290 291 290 287 287 289 292 291 289 289 290 290 291
187 188 188 188 188 189 190 190 189 188 188 187 185 184 180 177 173 168 167 168 170 178 184 186 190 193 197 200 202 207 210 212 217 227 237 246 260 274 284 289 290 284 275 266 259 259 262 263 261 262 266 267 273 284 291 302 308 289 279 273 266 269 287 314 323 302 303 301 292 296 303 300 297 296 293 288 287 290 291 290 288 287 289 291 292
190 189 189 190 190 190 189 190 189 188 188 186 185 185 182 181 181 179 179 180 180 187 193 195 196 196 197 199 201 206 209 211 217 225 232 239 250 263 274 279 279 274 264 256 253 254 256 259 256 254 259 263 269 278 285 296 302 291 286 280 274 277 286 296 296 296 310 305 292 298 303 301 300 300 296 288 287 294 293 288 285 286 289 290 290
189 188 189 190 191 191 190 190 190 189 188 187 187 188 186 186 187 186 188 189 189 192 194 195 198 196 192 194 199 203 208 211 217 222 227 234 241 251 263 268 268 266 259 253 253 254 254 254 252 250 257 264 270 275 281 289 293 293 293 289 286 288 290 292 292 294 303 304 301 301 300 299 299 300 297 291 292 296 294 288 285 286 287 287 289
189 189 191 191 191 191 190 190 190 190 189 189 189 191 192 192 191 191 192 193 194 193 190 186 187 188 187 190 195 200 205 209 214 219 223 228 234 243 252 257 258 257 254 253 254 253 252 253 254 256 261 265 266 268 274 279 283 287 292 293 294 295 295 293 293 292 286 284 296 303 307 308 301 295 292 291 293 294 291 288 285 284 285 287 290
191 191 191 190 191 190 190 190 191 191 190 191 192 193 195 195 195 195 193 191 189 187 184 180 181 184 185 188 192 197 202 206 211 217 220 223 228 237 243 248 252 251 251 253 255 254 255 258 261 265 266 265 263 262 266 272 274 276 280 286 291 292 294 293 287 290 290 281 285 295 303 307 302 295 293 291 290 290 289 287 283 282 284 286 287
190 190 190 190 190 190 190 191 192 192 192 193 195 195 196 198 198 197 194 189 185 181 179 179 182 185 187 190 193 196 200 205 211 213 216 220 225 232 239 242 246 248 249 252 255 258 260 261 262 261 260 259 261 262 261 262 265 269 269 270 276 279 280 280 279 287 291 282 286 292 295 298 295 292 293 292 290 288 288 285 281 281 284 284 282
Height
829 828 828 828 829 829 830 830 831 831 831 831 831 831 831 832 832 833 833 833 834 834 834 835 835 835 835 835 835 834 835 834 835 835 835 835 835 835 835 835 835 835 835 834 835 834 835 835 835 835 835 835 835 834 834 833 833 833 833 833 833 833 832 832 832 832 832 832 831 831 831 832 832 832 833 833 833 834 834 834 834 835 835 836 836
828 828 828 828 829 829 830 830 831 831 832 832 832 832 832 833 833 833 833 834 834 835 835 835 835 835 835 835 835 835 835 835 835 835 835 835 835 835 835 835 835 835 835 835 835 834 835 835 835 835 835 835 835 834 834 834 833 833 833 833 833 833 833 833 832 832 832 832 831 831 831 831 831 832 833 833 833 833 833 834 834 835 835 836 836
828 828 828 828 829 829 830 830 831 831 832 832 832 833 833 834 833 834 834 835 835 835 836 836 836 836 835 835 835 835 835 835 835 836 836 836 836 836 835 835 835 835 835 835 835 835 835 835 835 835 835 834 834 834 834 834 834 834 833 833 833 833 833 833 833 832 832 831 831 830 830 830 831 832 832 833 833 833 833 834 834 834 835 835 836
828 828 828 828 829 829 830 830 831 831 832 832 832 833 833 834 834 834 834 835 835 836 836 836 836 836 836 836 836 836 835 835 835 835 836 836 836 836 835 835 835 835 835 835 835 835 835 835 835 834 834 834 834 834 834 834 834 834 834 834 833 833 833 832 832 832 832 831 831 830 830 830 831 831 832 832 833 833 833 834 834 834 834 835 835
828 829 828 827 828 829 830 830 831 831 831 832 832 832 833 833 834 834 834 835 835 835 836 836 836 836 836 836 836 835 835 835 835 835 836 836 835 835 835 835 835 835 835 835 835 835 835 835 834 834 834 833 833 833 833 833 833 834 833 833 833 833 833 832 832 831 832 831 831 830 830 830 831 832 832 832 832 833 833 834 834 834 834 834 834
828 829 828 827 828 829 830 830 831 831 832 832 832 832 833 833 834 834 834 835 835 835 835 836 836 836 836 836 836 835 835 835 835 835 835 835 835 835 835 835 835 835 835 835 835 835 834 834 834 834 833 833 833 832 833 833 833 833 833 833 832 832 832 832 831 831 831 831 831 830 830 831 832 832 832 832 832 832 833 833 834 834 834 834 834
826 828 827 827 828 829 829 830 830 831 831 831 832 832 832 833 834 834 834 834 834 835 835 835 835 836 836 835 835 835 835 835 835 835 835 835 835 835 835 834 834 834 834 834 834 834 834 834 833 833 833 832 832 832 832 833 833 832 832 832 832 832 832 832 831 831 831 831 831 831 830 831 832 831 831 831 831 831 832 833 833 833 833 834 833
826 827 826 826 827 828 828 829 830 830 830 831 831 831 832 833 833 833 833 833 834 834 834 835 835 835 835 835 835 835 835 835 835 834 834 834 834 834 834 834 834 834 834 834 834 834 834 833 833 832 832 832 832 832 832 832 832 832 832 831 831 831 831 831 831 831 831 831 831 831 831 831 832 831 831 831 831 830 831 832 832 833 833 833 833
826 826 825 826 826 827 828 828 829 829 829 830 831 831 832 832 832 833 833 833 833 834 834 834 834 835 834 834 834 834 834 834 834 834 834 834 834 833 833 833 833 833 833 833 833 833 833 833 832 832 832 831 831 831 831 831 831 831 830 830 830 830 830 830 830 830 831 831 831 831 831 831 831 831 831 831 831 830 830 831 831 831 831 832 832
825 824 824 824 825 826 827 827 828 828 829 829 830 831 831 832 832 832 832 833 833 833 834 834 834 834 834 834 834 834 834 834 833 833 833 833 833 833 833 832 832 832 832 832 832 832 832 832 832 832 832 831 831 831 831 830 830 830 830 830 829 829 829 829 829 830 830 830 830 830 831 831 831 831 831 831 831 830 829 830 830 830 831 831 831
823 823 823 823 824 825 826 827 827 828 828 829 829 830 831 831 832 832 832 832 833 833 833 833 833 833 833 833 833 833 833 833 833 833 833 832 832 832 832 832 832 832 832 832 832 832 832 831 831 831 831 831 831 830 830 830 829 829 829 829 829 828 828 828 828 828 829 829 829 829 830 830 830 830 830 830 830 829 829 829 829 830 830 830 830
822 821 822 823 824 824 825 826 826 827 827 828 829 830 830 831 831 831 832 832 832 832 833 833 833 833 833 833 833 833 833 832 832 832 832 832 832 831 831 831 831 831 831 831 831 831 831 831 831 830 830 830 830 829 829 829 828 828 828 828 827 827 827 827 827 827 827 827 828 828 828 829 829 829 829 829 829 828 828 828 828 828 829 829 829
821 820 821 822 823 824 825 825 826 826 827 827 828 829 830 830 831 831 831 831 832 832 832 832 832 833 832 832 832 832 832 832 832 832 832 831 831 831 831 831 830 830 830 830 830 830 830 830 830 829 829 829 829 828 828 828 827 827 826 826 826 826 826 825 825 825 826 826 827 827 827 828 828 828 828 828 828 828 827 827 827 827 828 828 828
819 819 820 821 822 823 823 824 825 825 826 826 827 828 829 829 830 830 831 831 831 831 832 832 832 832 832 832 832 832 832 832 832 832 832 832 831 831 831 830 830 830 830 830 829 829 829 829 829 829 828 828 827 827 826 826 826 825 825 825 824 824 824 824 823 823 824 824 824 825 826 826 826 827 827 827 827 827 827 827 826 826 826 826 827
818 818 819 820 821 822 823 824 824 824 825 825 827 827 828 829 829 830 830 830 831 831 831 832 832 832 832 832 832 833 833 833 833 832 832 832 832 831 831 831 830 830 830 829 829 829 828 828 828 827 827 827 826 826 825 825 824 823 823 823 822 822 822 821 821 821 821 822 822 823 824 824 825 825 826 826 826 825 825 825 825 825 825 825 825
817 818 818 819 821 822 822 823 823 824 824 825 826 827 827 828 828 829 829 830 830 831 831 831 831 832 832 832 833 833 833 833 833 833 833 833 832 832 832 831 831 831 830 830 829 829 828 828 827 827 826 826 825 825 824 824 823 823 822 821 821 821 820 820 819 820 820 820 820 821 821 822 823 823 824 824 824 824 824 824 824 824 824 824 824
816 817 817 819 820 820 821 821 822 822 823 824 825 826 827 827 828 828 829 829 830 830 830 831 831 832 832 833 833 833 834 834 834 834 834 833 833 833 832 832 832 831 831 830 830 829 829 828 828 827 826 826 825 825 824 823 823 822 821 821 820 820 819 819 818 818 818 818 818 819 819 820 821 821 822 822 822 822 822 822 822 822 822 823 822
815 816 817 818 818 819 819 820 820 821 822 823 824 824 825 826 827 827 828 829 829 829 830 830 831 831 832 833 833 834 834 835 835 835 835 834 834 834 833 833 832 832 831 831 830 830 829 829 828 828 827 826 826 825 824 823 822 821 821 820 820 819 818 818 817 817 817 817 817 818 818 819 819 819 820 820 820 820 820 820 820 821 821 821 821
815 815 816 817 817 818 818 819 819 820 821 821 822 823 824 824 825 826 826 827 828 828 828 829 830 830 831 832 833 833 834 834 835 835 835 834 834 834 833 833 833 832 832 831 831 830 830 829 829 828 827 827 826 825 824 823 822 821 821 820 819 818 818 817 816 816 816 816 817 817 817 818 818 818 818 818 819 819 819 819 819 819 819 819 820
814 815 815 816 816 817 817 818 819 819 819 819 821 821 822 823 823 824 825 826 826 827 827 828 828 829 830 831 832 832 833 833 834 834 834 834 833 833 833 833 833 832 832 831 831 830 830 829 829 828 828 827 826 825 824 824 823 821 821 820 819 818 818 817 816 816 815 815 816 816 816 817 817 817 817 817 817 817 817 817 817 817 817 818 818
812 813 814 814 815 815 815 817 817 818 818 818 820 820 821 821 822 823 824 825 825 826 826 827 827 828 829 830 831 832 833 833 833 833 833 833 833 833 833 832 832 832 831 831 831 830 830 829 829 828 827 827 826 825 824 824 823 821 821 820 819 818 817 817 816 815 814 814 814 814 815 815 815 815 815 816 816 816 816 815 815 815 815 816 816
810 811 812 813 813 813 814 815 816 817 817 817 818 819 820 820 821 822 823 824 824 825 825 826 827 828 829 829 831 831 832 832 833 833 832 832 832 832 832 831 831 831 830 830 830 830 829 829 828 828 827 827 826 825 824 823 822 821 820 819 819 818 817 817 815 814 813 813 813 813 813 813 813 813 813 814 814 814 814 814 813 813 813 813 814
807 808 809 810 811 812 813 813 814 815 815 816 817 818 819 819 821 821 822 823 823 824 824 826 826 827 828 828 830 830 831 831 831 831 831 831 831 831 830 830 830 830 830 829 829 829 828 828 828 827 827 826 826 825 824 823 822 821 820 819 818 818 817 816 815 814 813 813 812 812 811 811 811 811 812 812 812 812 812 812 812 811 811 811 811
803 805 806 808 809 809 811 811 812 813 814 815 816 817 818 819 820 820 821 822 823 823 824 825 826 827 827 827 829 829 829 830 830 830 830 829 829 829 829 829 829 829 829 829 829 829 828 828 827 827 826 826 825 824 823 822 821 820 820 819 818 817 816 815 814 813 812 812 811 811 810 810 810 810 810 810 810 810 810 810 810 810 809 809 808
800 802 804 805 805 806 808 809 809 811 812 813 815 816 817 818 819 819 820 821 822 823 824 825 825 826 826 827 828 828 829 829 829 829 828 828 828 828 828 828 828 828 828 828 828 828 828 828 827 827 826 826 825 824 823 822 821 820 819 818 818 817 816 815 814 813 812 811 810 809 809 808 808 808 808 808 808 808 808 808 808 807 807 807 806
798 799 799 801 803 804 805 806 807 809 810 811 813 814 815 816 817 818 819 820 821 822 823 824 824 825 825 826 826 827 828 828 828 828 827 827 826 827 826 827 827 827 827 827 827 828 827 827 827 826 826 826 825 824 823 822 821 820 819 818 817 816 816 814 813 812 811 810 809 808 807 807 806 806 806 806 805 805 805 805 805 805 805 804 804
793 794 796 798 800 801 802 803 804 806 808 810 811 812 813 814 815 816 817 818 820 821 822 822 823 824 824 825 825 826 827 827 827 827 827 826 825 826 826 826 827 827 827 827 827 827 828 827 827 827 826 826 825 824 823 822 821 820 818 817 816 815 814 813 812 811 810 809 808 807 806 805 805 804 804 803 803 803 803 803 803 802 802 802 802
789 791 792 794 796 798 799 801 802 804 806 808 809 810 812 812 813 815 816 817 818 820 820 821 822 823 823 824 824 825 825 826 826 826 826 825 825 825 825 826 826 827 827 827 827 827 828 827 827 827 826 826 824 824 822 822 821 820 819 817 816 814 813 812 811 809 808 807 806 805 805 804 803 802 802 802 801 801 801 801 801 801 800 800 799
785 787 789 790 793 795 796 798 800 802 804 806 807 809 810 810 812 813 814 816 817 818 819 820 820 821 822 822 822 823 824 825 826 826 825 825 824 825 825 826 826 827 827 827 827 828 828 828 827 827 826 825 824 823 822 821 821 820 818 817 816 814 813 811 810 808 807 806 804 803 802 802 801 800 800 800 799 799 799 799 799 799 799 798 798
781 784 786 787 789 792 793 795 798 800 802 804 805 807 808 809 810 812 813 814 815 816 818 819 819 819 820 821 821 822 823 824 825 825 825 824 824 824 825 826 826 826 827 827 828 828 828 827 827 826 826 825 824 823 822 821 820 819 818 817 816 814 812 810 809 807 806 804 803 801 800 799 799 798 798 797 797 797 797 797 797 797 797 797 796
778 780 782 784 787 789 791 793 795 797 799 802 803 805 806 807 809 810 811 813 814 815 816 817 817 818 819 820 820 821 822 823 824 824 824 824 824 824 825 825 826 826 827 827 828 828 827 827 826 826 826 825 824 822 821 820 819 819 818 817 816 814 812 810 808 806 805 803 801 800 798 797 797 796 795 795 795 794 794 795 795 795 795 795 794
774 775 778 781 784 786 788 790 792 794 796 799 801 802 804 805 806 808 810 811 812 814 815 815 816 817 818 819 819 820 821 822 823 823 823 823 823 824 824 825 825 825 826 827 827 827 827 827 826 826 825 824 823 821 820 819 818 818 817 816 815 813 811 808 806 805 803 801 800 798 797 796 795 794 793 793 792 792 792 792 792 792 793 793 792
770 772 776 778 780 783 785 788 790 791 794 796 798 800 802 803 804 806 808 809 811 812 813 814 814 815 817 818 819 819 820 820 821 822 822 822 822 823 823 823 824 824 825 826 826 826 826 826 826 825 824 822 821 820 819 818 817 817 816 815 813 811 809 807 805 803 801 800 798 797 795 795 793 793 792 791 791 790 790 790 790 790 790 790 790
767 770 773 775 778 780 783 785 787 788 791 794 796 798 799 801 803 804 806 808 809 810 811 812 813 814 816 816 818 818 818 819 820 820 821 821 821 821 822 822 822 823 824 824 825 825 825 825 824 823 822 821 820 819 819 817 816 816 815 814 812 811 808 805 803 801 799 798 796 795 794 793 792 791 790 789 789 789 788 788 788 788 788 788 788
764 767 769 772 775 778 781 783 784 786 789 791 793 795 797 799 801 802 804 806 808 809 810 811 811 812 814 815 816 817 817 818 819 819 819 820 820 821 821 821 821 822 823 823 824 824 824 823 823 822 821 820 819 819 818 816 815 815 814 813 811 809 806 803 801 799 797 796 794 793 792 791 791 790 789 787 787 786 786 786 786 785 785 785 785
760 763 766 770 773 776 778 780 781 784 786 788 790 793 795 797 799 800 803 805 806 807 808 809 810 811 812 814 815 815 816 817 817 818 818 819 819 820 820 820 820 821 821 822 822 822 822 822 822 822 821 820 819 818 817 816 815 815 813 812 809 806 803 800 798 796 795 793 792 791 791 790 790 789 788 786 785 784 784 784 784 783 783 783 782
756 759 762 766 770 773 776 777 779 782 784 786 788 790 793 795 797 799 801 803 804 805 806 808 809 810 811 812 813 814 814 815 816 817 817 818 819 819 819 819 819 819 820 820 821 821 821 821 821 822 821 820 819 818 816 815 815 814 812 810 807 804 801 798 795 793 792 791 790 789 789 788 788 787 786 785 784 783 782 782 782 782 781 781 780
755 757 759 763 766 770 773 775 778 780 783 784 786 789 791 794 795 797 799 801 802 803 805 806 807 809 810 810 811 812 812 813 815 815 816 817 817 817 817 816 817 817 818 819 820 820 821 821 821 821 822 821 819 818 815 815 814 813 811 808 805 802 799 795 793 791 789 788 787 787 786 786 785 785 784 783 782 781 781 780 780 780 779 779 778
753 755 758 761 764 768 771 774 776 778 780 782 784 787 789 792 793 796 798 799 801 802 803 805 806 808 808 809 810 810 811 812 813 814 814 815 815 815 814 815 816 816 817 818 819 820 820 821 821 821 821 820 819 817 815 814 813 812 809 806 804 800 797 793 790 789 788 787 786 785 784 784 783 783 782 781 780 780 779 779 778 778 777 777 776
751 754 757 760 762 765 768 771 774 775 778 780 782 784 787 789 791 793 795 797 799 800 802 803 805 806 807 808 809 808 809 811 812 813 813 813 813 813 813 814 814 815 816 817 818 819 820 820 820 820 819 818 817 817 816 815 813 810 807 805 802 799 795 791 788 787 787 785 784 784 783 782 781 781 781 780 779 778 778 777 777 776 776 775 774
749 752 754 757 760 762 765 768 770 772 773 775 777 779 781 784 787 789 791 794 796 798 800 801 803 804 805 806 807 807 808 809 810 811 811 811 811 811 812 813 813 814 815 816 817 818 819 819 819 818 817 817 816 816 815 814 812 808 805 802 799 798 795 789 786 786 786 785 784 783 782 781 780 780 779 779 778 777 776 776 775 774 774 773 772
746 749 751 754 757 759 762 764 766 768 768 770 772 774 776 778 781 784 787 791 793 794 796 799 800 801 803 804 805 806 807 808 809 809 809 809 810 810 811 811 812 813 814 815 816 817 817 818 818 817 817 817 816 815 815 814 812 809 806 801 797 794 792 787 784 785 785 784 783 782 781 781 779 779 779 778 777 776 775 774 773 772 772 771 771
743 746 749 752 754 756 758 760 762 763 765 767 768 771 773 776 779 782 785 788 790 792 794 796 798 799 801 802 803 804 805 806 807 807 807 808 808 809 809 810 811 812 813 814 815 816 816 817 816 816 816 816 816 815 815 814 812 810 808 804 799 795 791 786 784 785 785 782 781 780 779 779 778 777 777 776 775 774 773 772 771 770 770 769 769
741 743 746 748 750 752 753 756 758 759 761 763 766 769 772 776 779 781 784 786 788 790 793 794 795 797 798 800 800 802 803 804 804 805 805 806 806 807 808 809 810 810 812 812 813 814 815 815 815 815 815 815 815 814 814 814 812 810 809 807 803 799 793 789 786 784 784 781 779 779 779 777 777 776 775 774 773 772 771 770 769 768 768 767 766
737 738 741 743 745 747 749 752 754 757 759 761 764 767 770 773 776 780 783 785 787 788 790 791 792 794 795 796 798 799 800 801 802 802 803 804 804 805 806 807 808 809 810 811 812 813 813 813 813 813 813 814 813 812 811 811 811 811 811 810 807 802 796 794 790 781 779 781 778 777 777 776 775 774 773 772 771 770 769 768 767 766 765 764 764
732 734 737 740 742 744 746 749 751 754 756 759 762 764 766 768 770 773 776 779 783 784 784 785 787 789 791 793 795 796 798 798 799 800 800 801 802 803 804 805 807 808 809 810 811 811 811 811 811 811 811 812 811 811 809 809 810 810 811 811 810 807 800 799 797 785 775 775 776 775 774 775 774 773 772 770 769 769 768 767 765 764 763 762 761
728 732 736 738 740 742 744 747 749 751 754 756 758 760 762 764 766 767 770 772 775 777 779 781 783 786 788 791 792 793 795 796 796 797 798 799 800 801 802 804 805 807 808 809 809 810 810 809 810 810 810 810 810 809 808 808 808 809 810 810 809 809 805 802 801 794 781 770 769 773 774 773 773 771 770 769 768 767 766 765 763 761 760 759 758
727 731 733 736 738 740 742 744 747 748 751 753 755 756 758 761 763 765 767 769 770 773 777 779 781 783 786 787 789 790 792 793 794 794 795 796 798 799 800 801 803 805 807 808 808 808 808 808 808 809 808 808 808 807 807 807 808 808 808 809 808 807 806 804 802 800 794 779 766 766 770 771 771 770 768 767 766 765 763 762 761 759 757 756 755
725 727 729 732 735 737 740 742 744 746 748 750 752 754 756 758 760 763 765 767 769 772 774 776 778 780 782 784 786 787 789 790 791 792 792 793 795 796 797 799 801 803 805 806 807 807 807 807 807 807 807 806 806 806 806 806 807 807 807 807 807 805 804 804 802 800 798 790 775 765 765 767 768 768 767 766 764 763 762 760 758 757 755 753 752
722 725 727 730 732 734 736 738 739 741 743 745 747 750 752 755 757 759 761 764 767 769 771 773 775 776 779 781 783 785 786 788 788 789 790 791 792 793 794 796 799 801 802 804 805 805 805 805 805 805 805 804 804 804 805 805 805 806 806 806 805 804 803 802 801 799 797 794 784 772 767 767 764 763 764 764 762 761 759 757 756 753 752 751 749
720 723 725 727 729 730 732 733 735 737 739 741 742 745 748 749 751 753 756 759 761 763 765 768 770 772 775 777 779 782 783 785 786 787 788 788 789 790 792 794 796 798 800 801 802 803 804 804 803 803 803 803 802 803 803 803 804 804 804 805 803 802 802 800 799 798 796 794 788 779 772 769 764 758 760 761 758 758 756 754 752 750 749 748 746